Theta_e
322 321 322 323 322 323 323 324 325 325 328 331 329 328 329 349 347 344 343 346 348 349 348 349 348 348 348 348 348 347 346 346 345 345 345 346 343 344 344 345 344 342 336 336
321 323 322 322 321 322 322 325 325 324 327 330 329 329 327 348 349 348 347 344 346 348 348 349 349 349 349 349 348 348 348 347 347 346 345 346 344 344 344 345 345 342 335 339
323 325 324 325 324 324 323 323 323 324 325 327 328 328 328 332 348 349 348 349 348 347 348 349 349 349 349 349 349 348 348 347 347 347 346 346 346 345 344 345 345 344 340 340
323 323 326 325 324 321 324 321 323 327 325 327 326 329 327 326 333 342 343 345 348 349 349 349 350 349 348 347 348 348 349 348 348 348 347 347 346 346 346 345 344 345 344 342
324 326 326 325 324 320 322 322 327 329 326 328 327 327 328 330 329 332 337 341 344 346 347 349 348 348 348 348 348 348 348 348 348 348 347 347 347 347 347 346 345 345 343 344
323 325 325 324 324 320 323 323 321 325 324 326 329 328 330 345 343 335 342 335 342 344 346 347 347 347 347 348 348 348 348 348 348 348 347 347 347 346 347 347 345 345 344 345
324 325 324 324 324 323 322 321 323 328 332 330 328 337 342 342 343 345 347 339 343 344 345 346 346 346 346 346 347 346 347 347 348 348 348 347 347 347 347 347 347 345 345 345
324 329 329 325 324 324 323 322 323 331 329 328 330 340 343 341 343 345 346 345 344 345 344 345 345 345 345 345 345 345 345 345 346 347 348 347 347 347 347 345 346 345 344 345
326 330 326 327 324 324 325 326 321 323 322 330 332 337 340 340 342 346 344 344 346 346 346 346 346 346 346 346 344 346 346 346 346 346 347 346 347 346 347 346 345 344 344 345
326 330 326 327 324 322 325 322 325 322 331 336 334 336 345 344 341 343 347 345 343 343 342 341 339 342 345 347 346 347 348 347 347 347 347 342 335 341 346 347 346 344 344 345
323 323 328 323 323 324 320 320 321 321 325 332 334 334 331 340 340 343 345 348 346 345 346 347 347 346 346 348 346 347 348 346 347 343 349 347 340 334 334 346 347 347 346 343
323 320 326 325 321 319 321 321 319 323 328 324 328 335 334 340 341 343 346 347 345 343 342 340 337 334 332 336 340 347 350 348 348 341 343 338 334 335 339 347 348 348 347 348
323 319 323 323 321 320 321 321 317 315 314 326 333 333 339 343 343 344 345 345 343 341 338 337 336 335 333 333 335 336 345 349 348 340 338 342 345 344 345 341 342 344 342 348
320 313 319 321 321 319 324 323 318 316 318 317 326 336 343 343 342 340 343 342 339 337 335 334 332 332 331 330 329 328 330 338 340 342 341 339 336 337 342 345 347 348 343 349
317 321 320 319 319 322 323 324 324 319 318 320 320 338 341 341 337 336 340 337 336 334 333 332 332 331 330 329 329 328 327 326 327 327 327 327 327 327 327 328 336 345 346 345
315 321 320 321 321 321 324 325 323 329 328 337 341 344 337 339 339 339 338 335 334 332 330 330 329 330 331 330 329 328 327 327 325 326 326 327 327 327 327 327 328 328 331 338
318 317 316 319 319 320 322 325 325 329 329 337 342 336 329 326 334 334 332 330 328 327 328 328 327 327 327 327 328 328 329 329 328 327 327 327 328 328 328 328 329 330 329 328
314 314 313 317 318 323 320 323 325 325 325 325 325 324 324 327 330 327 327 327 327 327 327 326 326 325 325 326 326 327 327 327 328 328 329 329 329 329 329 328 330 332 331 329
313 314 317 319 318 319 324 323 323 327 326 324 325 324 326 326 326 326 326 326 326 325 324 324 324 324 324 324 325 325 324 324 325 327 327 327 326 326 326 328 328 331 332 332
312 312 317 317 322 324 321 323 324 322 325 325 325 325 326 325 326 325 327 325 325 325 325 325 325 324 324 324 324 325 325 325 325 325 325 326 326 325 324 325 328 327 331 333
318 317 318 319 320 320 319 324 323 325 324 326 325 325 325 323 325 325 325 325 325 325 325 326 325 325 325 325 324 326 326 326 325 327 328 327 325 324 325 325 325 326 327 331
321 321 320 319 323 326 322 323 323 320 323 326 325 325 325 325 325 325 325 325 324 324 326 325 326 326 325 325 325 326 326 325 326 326 327 325 324 325 325 324 325 325 325 327
322 318 322 318 320 319 323 324 324 326 326 325 325 325 324 324 324 325 325 325 325 325 325 326 326 326 325 325 325 326 326 325 325 326 326 324 324 322 322 324 324 324 326 328
318 316 318 319 323 323 324 325 325 324 324 324 324 324 324 325 325 326 326 325 324 324 324 324 325 324 323 322 322 321 322 326 326 325 324 324 323 323 323 321 324 324 326 327
317 318 319 320 322 324 324 324 324 324 323 323 323 323 323 324 326 325 325 325 325 325 325 324 322 322 322 322 321 321 322 323 324 324 323 322 322 322 322 322 321 322 326 327
319 317 319 320 323 323 323 324 323 323 322 322 324 325 326 325 325 324 324 325 325 324 322 321 322 321 321 321 322 321 321 322 322 322 322 323 323 323 323 323 323 323 325 327
Wind_Speed
5 5 3 5 3 3 2 3 5 6 5 5 7 6 5 17 16 17 25 29 32 32 25 27 27 27 24 22 22 20 18 18 18 19 18 17 17 16 14 14 15 18 17 14
5 3 6 4 4 4 2 2 5 6 2 5 1 8 6 13 20 29 27 30 33 32 28 25 26 27 28 26 22 22 21 20 20 19 18 17 15 15 14 15 15 17 18 14
5 4 2 1 4 2 3 4 4 7 4 4 3 8 3 1 11 16 20 28 29 30 29 25 26 25 26 26 25 23 23 21 20 19 19 19 18 16 17 17 17 17 20 19
4 3 1 1 5 7 2 6 5 2 3 2 3 4 5 7 5 10 17 25 31 31 28 25 24 23 23 20 22 23 23 22 21 20 21 21 20 18 15 16 15 15 21 19
6 3 2 4 3 5 8 4 2 3 4 3 3 4 6 8 5 5 12 25 31 29 26 25 24 22 21 22 22 21 21 21 22 22 21 22 23 20 17 15 17 16 18 20
7 2 3 7 2 6 3 4 8 5 4 3 4 4 5 4 6 9 14 13 23 25 23 22 22 19 19 21 21 21 22 22 21 21 22 23 23 21 20 18 19 20 19 22
6 4 3 4 1 3 3 6 3 4 4 3 4 4 7 6 6 8 12 5 15 17 20 23 21 17 16 15 18 20 21 21 22 23 23 22 23 23 23 20 21 22 23 21
1 6 2 1 5 5 3 6 5 3 2 2 3 1 4 4 9 9 7 10 14 18 18 14 12 12 11 13 12 16 18 18 20 23 24 24 26 26 26 23 24 23 24 25
3 4 4 1 2 5 2 1 4 7 3 3 1 3 3 6 7 13 13 17 17 18 18 17 16 14 14 11 10 10 10 14 17 20 20 23 26 25 29 30 26 27 26 24
3 1 2 5 3 7 4 4 3 4 1 2 1 3 4 3 3 6 11 17 20 18 14 9 4 3 3 6 7 7 10 12 10 13 19 19 27 34 32 33 33 29 29 29
4 3 4 3 5 2 5 3 6 5 3 5 3 5 2 6 4 3 4 14 19 19 19 17 15 16 18 14 9 6 3 4 4 8 15 21 20 19 32 30 36 32 29 29
1 4 2 1 3 1 2 2 4 5 3 1 3 4 3 6 9 12 9 13 18 21 21 19 18 20 23 21 17 11 3 6 8 9 7 10 13 22 20 26 27 29 30 29
5 3 3 6 6 5 5 3 5 4 3 4 5 5 4 7 11 13 16 13 15 16 15 15 15 16 16 15 14 14 3 11 16 10 9 11 11 18 18 24 27 30 32 31
5 3 5 6 5 3 4 4 3 4 3 4 5 5 4 7 11 13 16 14 14 13 12 9 10 10 10 10 10 12 12 10 5 9 10 15 16 18 22 25 27 26 29 29
4 4 1 2 3 2 3 2 5 5 4 5 4 7 5 8 8 16 18 14 12 10 9 7 5 4 4 6 9 13 15 16 13 12 14 15 18 21 22 23 24 22 19 25
3 2 2 2 2 3 4 4 5 1 3 4 5 2 4 10 15 18 16 13 8 7 4 3 3 0 3 4 5 9 13 17 21 22 21 19 20 21 22 23 22 21 19 21
3 6 3 4 3 5 4 4 3 3 3 5 4 4 5 4 8 13 15 14 13 11 9 6 4 6 8 9 9 11 12 15 19 24 26 27 26 23 22 23 21 20 19 17
6 5 2 2 3 2 4 2 6 8 4 5 7 5 8 12 13 14 13 12 8 3 4 8 12 15 16 19 22 22 22 23 23 26 27 28 28 28 25 22 20 19 20 18
2 5 3 4 2 5 4 4 4 3 1 2 6 7 19 18 13 7 8 3 3 6 8 11 11 11 15 17 17 20 25 30 31 30 31 31 30 29 29 27 23 21 20 17
6 5 4 3 4 7 5 2 2 4 2 6 6 12 16 10 3 4 11 8 9 11 14 16 16 17 19 19 21 27 30 29 30 28 25 25 28 32 34 29 26 26 22 17
3 3 5 3 3 5 5 2 7 4 6 13 10 10 13 5 10 6 10 13 16 19 20 17 19 21 22 25 27 30 30 28 27 29 29 33 36 37 31 31 30 30 29 24
4 5 3 3 3 5 2 3 4 4 8 9 5 5 6 10 13 15 15 19 22 22 19 22 24 26 29 31 29 29 29 30 28 27 31 37 35 34 35 32 30 26 26 26
0 4 4 5 4 3 2 4 10 4 8 4 3 6 11 16 19 19 21 22 22 23 26 27 30 34 34 33 30 31 33 30 30 30 33 35 36 35 34 33 30 28 25 28
2 3 4 3 2 2 8 9 7 3 0 4 8 12 14 17 18 21 23 23 26 28 31 30 30 34 39 38 38 37 37 30 28 33 33 33 34 36 35 34 32 28 24 26
3 3 5 1 3 1 4 4 2 4 6 10 13 16 19 20 20 23 27 28 29 27 29 33 35 34 33 34 33 31 28 29 30 30 33 36 36 35 36 35 33 30 25 23
4 5 4 5 12 5 4 6 4 5 10 12 14 16 17 22 27 28 28 26 26 31 35 35 30 27 30 28 28 26 24 24 26 29 31 31 31 32 33 33 33 28 24 23
Wind_Direction
24 50 235 231 175 164 195 201 249 262 267 180 204 248 210 191 200 191 199 205 214 222 227 227 232 236 229 234 231 229 225 215 214 211 211 216 216 210 211 225 228 223 220 217
26 228 228 206 168 184 161 319 289 285 282 157 78 274 262 179 212 208 201 207 217 223 226 229 230 235 241 240 233 228 231 228 220 220 224 224 223 219 217 231 231 223 213 218
166 235 14 335 286 294 240 198 233 233 359 37 64 312 322 263 237 224 223 227 228 225 223 224 229 233 237 237 235 229 230 231 230 224 230 233 234 232 225 223 222 225 223 224
242 299 262 244 254 148 278 205 221 133 79 208 48 271 15 321 270 224 216 223 233 231 230 232 234 232 229 231 233 234 235 234 234 234 234 239 245 244 246 237 239 237 224 223
256 219 267 328 215 183 223 150 66 54 92 69 4 86 290 349 14 280 237 226 230 230 228 225 228 230 231 233 240 242 243 240 236 240 243 246 251 252 255 257 246 246 226 224
238 268 229 218 228 187 95 74 41 47 75 42 319 126 314 331 291 300 311 268 220 219 215 219 222 227 228 234 237 246 252 253 246 243 250 251 256 258 255 259 248 247 244 237
326 256 271 174 136 21 91 56 346 15 16 191 287 53 245 286 332 303 318 348 186 192 195 204 212 216 225 234 236 242 249 257 257 251 252 256 260 261 258 258 259 253 252 247
158 333 241 197 185 180 59 142 155 201 197 251 12 28 289 355 10 7 51 101 143 158 164 175 194 204 225 234 238 239 247 256 257 257 260 261 264 265 267 268 267 255 252 256
159 281 318 0 167 120 177 123 175 105 6 81 250 329 321 32 1 12 37 92 100 124 137 144 144 170 202 225 235 259 251 250 258 260 251 261 275 274 274 268 268 265 253 253
198 29 352 308 69 38 109 142 48 15 137 132 268 200 218 225 326 1 34 62 85 92 116 125 107 17 290 294 328 260 242 258 246 257 263 253 287 273 266 271 263 259 259 252
132 117 288 39 25 342 2 20 51 112 101 154 160 253 214 186 148 125 47 85 87 89 87 79 65 53 48 43 23 45 219 241 232 267 251 266 273 307 274 275 271 262 253 253
96 132 83 145 298 215 20 102 114 116 225 72 141 251 28 123 144 137 131 112 99 93 88 80 67 56 51 52 51 49 256 247 189 179 195 286 291 292 287 280 275 275 272 257
174 33 50 0 351 11 42 351 96 95 76 189 139 245 103 119 125 138 137 124 109 98 85 73 64 54 50 45 45 45 24 248 252 253 274 312 310 308 310 293 291 289 275 269
93 90 150 184 201 181 309 333 59 104 111 175 222 160 179 155 149 150 151 136 121 106 90 68 57 52 46 45 44 37 32 29 347 310 326 328 332 325 322 315 301 302 269 263
94 120 182 184 223 218 236 283 310 207 186 166 253 197 161 165 165 158 145 144 134 116 107 96 82 68 46 26 12 4 350 348 340 329 326 327 325 325 325 328 324 315 308 281
359 135 83 295 298 323 269 6 326 83 111 87 133 83 134 141 137 146 155 156 142 123 112 110 103 117 260 292 327 328 318 315 313 311 310 309 311 313 313 315 323 325 322 321
80 130 102 259 3 338 333 308 287 52 46 140 153 203 136 86 135 139 135 137 127 116 104 81 32 355 340 327 314 294 286 280 290 293 297 300 302 302 304 307 306 313 323 330
130 106 99 197 28 253 244 264 95 106 44 53 87 82 118 132 132 132 133 131 120 89 349 323 313 303 293 288 287 289 293 292 290 288 289 291 293 295 300 304 298 299 310 317
83 125 87 136 152 290 302 255 193 137 310 284 119 115 131 130 129 152 156 169 272 292 301 305 303 301 312 307 292 291 294 289 286 284 288 290 290 292 293 293 293 294 293 305
76 71 114 143 149 197 242 245 130 123 288 197 148 146 166 160 147 243 214 262 279 291 298 297 299 299 303 302 297 294 294 286 281 285 285 290 293 298 294 288 289 287 289 282
45 25 150 146 183 288 250 203 127 90 242 169 175 169 173 192 224 265 277 282 289 292 290 288 294 295 294 299 298 288 288 282 285 285 282 290 294 294 291 287 286 280 277 275
171 141 171 99 98 245 21 117 170 195 138 166 189 220 250 273 281 278 280 287 295 295 289 296 297 297 298 301 298 289 284 284 284 280 281 289 290 288 288 289 287 288 276 264
6 176 174 167 212 294 3 114 118 103 146 161 238 271 273 282 283 286 294 299 298 295 297 299 300 300 301 301 300 292 285 286 282 279 285 290 289 288 286 285 286 285 276 264
10 145 99 87 301 99 110 108 108 101 321 278 283 287 292 295 297 296 299 300 301 300 298 299 301 302 302 303 302 296 287 284 282 286 288 289 288 289 289 286 281 288 276 267
195 117 135 44 298 156 181 164 184 271 289 300 296 296 297 294 293 295 299 300 301 300 300 302 304 304 303 305 305 310 303 290 285 286 288 289 290 290 286 284 283 280 277 267
186 165 145 212 200 163 189 210 247 271 305 305 302 301 296 297 298 298 296 295 297 301 303 304 304 306 309 309 310 315 312 303 295 292 291 292 293 291 288 288 287 277 272 266